OKEAN-0
1 25860U 99039A 11061.90636093 .00000128 00000-0 26984-4 0 02454
2 25860 097.8705 031.3591 0001288 042.7097 317.4211 14.73716463625003
NOAA-16
1 26536U 00055A 11062.46944085 .00000200 00000-0 13315-3 0 2106
2 26536 099.1522 090.8134 0010016 333.2884 026.7766 14.12600971538434
NOAA-17
1 27453U 02032A 11062.58767416 .00000218 00000-0 11239-3 0 2052
2 27453 098.3948 107.0816 0012744 098.2453 262.0189 14.24241838451629
NOAA-18
1 28654U 05018A 11062.54822422 .00000363 00000-0 22515-3 0 6883
2 28654 098.9850 013.5017 0014988 044.6559 315.5792 14.11443377298024
NOAA-19
1 33591U 09005A 11062.59296783 .00000329 00000-0 20699-3 0 8828
2 33591 098.8177 004.5728 0013330 276.0882 083.8737 14.11136621106494
HUBBLE
1 20580U 90037B 11062.21844846 .00000636 00000-0 35625-4 0 7214
2 20580 028.4712 348.5857 0003322 078.4021 281.6963 15.01181443943710
ISS
1 25544U 98067A 11062.66968330 .00024457 00000-0 18183-3 0 9357
2 25544 051.6480 342.0829 0005279 039.9625 033.1957 15.72669582704292
CO-58
1 28895U 05043F 11062.66500318 .00000215 00000-0 53966-4 0 8140
2 28895 097.9837 303.0429 0017283 188.0914 172.0020 14.60016808284842
FALCON
1 30776U 07006E 11061.92760360 .00000936 00000-0 69128-4 0 00346
2 30776 035.4349 272.8750 0001749 293.0256 067.0279 15.04157170219039
MAST
1 31126U 07012K 11061.62482998 .00000226 00000-0 60954-4 0 00999
2 31126 097.9067 094.8213 0095058 141.9198 218.8760 14.53679587205600
CAPE1
1 31130U 07012P 11062.54436351 .00000294 00000-0 77749-4 0 1185
2 31130 097.9132 092.6232 0103431 148.7594 211.9780 14.52299355205308
COMPASS
1 32787U 08021E 11062.77090039 .00000997 00000-0 13149-3 0 9236
2 32787 097.8594 128.5124 0015892 156.5532 203.6412 14.82167179153942
AAUSAT2
1 32788U 08021F 11062.67971755 .00000863 00000-0 11428-3 0 9138
2 32788 097.8590 128.6139 0015292 158.2699 201.9190 14.82330820153942
DO-64
1 32789U 08021G 11061.70529631 .00001098 00000-0 14259-3 0 09309
2 32789 097.8683 128.4740 0015770 158.9709 201.2153 14.82634230153801
CO-66
1 32791U 08021J 11061.75415561 .00000760 00000-0 10247-3 0 09154
2 32791 097.8612 127.4840 0016139 159.0790 201.1108 14.81901442153741
RS-30
1 32953U 08025A 11062.54592523 .00000010 00000-0 00000 0 0 5190
2 32953 082.4978 228.3898 0018127 256.2140 103.6926 12.43010621125961
TACSAT-3
1 35001U 09028A 11062.52820236 .00009896 00000-0 20667-3 0 5190
2 35001 040.4537 092.6982 0021485 146.8256 213.3913 15.45163629100715
PHARMSAT
1 35002U 09028B 11062.22737216 .00007678 00000-0 16041-3 0 4830
2 35002 040.4689 091.9906 0024246 150.2562 209.9638 15.45316424100694
HAWKSAT1
1 35003U 09028C 11062.41356087 .00029740 00000-0 46243-3 0 5310
2 35003 040.4549 073.8505 0021103 174.8135 185.2893 15.52976477100913
CP6
1 35004U 09028D 11062.41053885 .00038411 00000-0 54183-3 0 5352
2 35004 040.4539 069.3068 0021892 183.5147 176.5509 15.55522831100957
AEROCUB3
1 35005U 09028E 11006.09222617 .14049365 73043-5 82692-3 0 6103
2 35005 040.4461 021.7975 0025578 084.1677 280.7191 16.39196088 92544
METEOR-M
1 35865U 09049A 11062.73501566 .00000176 00000-0 10000-3 0 1532
2 35865 098.7212 119.1671 0002649 356.0011 004.1100 14.21834763 75604
RS-38
1 35869U 09049E 11062.74775155 .00000177 00000-0 10000-3 0 1625
2 35869 098.7183 119.2199 0004607 345.1749 014.9255 14.22001342 75615
